When you browse on this site, cookies collect data to enhance your experience and personalize the content and advertising you see.
Visit our Privacy Policy to learn more. By continuing to use the site, you agree to this use of cookies and data.
  • In Österreich
  • Länderverzeichnis
  • Für 7 Tage
  • Wassertemperatur
  • Wetterkarte
  • News
  • Widgets
  • user-avatar
    Anmelden

    Stündliche Wetter Zastinka

    Heute, 6 Dezember, Freitag

    Zeit Temperatur Niederschläge Wind Luftdruck Luftfeuchtigkeit
    00:00 -2°C° 0 mm 2 m/S 739 mmHg 66%
    01:00 -2°C° 0 mm 2 m/S 739 mmHg 66%
    02:00 -2°C° 0 mm 2 m/S 739 mmHg 70%
    03:00 -2°C° 0 mm 2 m/S 738 mmHg 70%
    04:00 -3°C° 0 mm 2 m/S 738 mmHg 70%
    05:00 -3°C° 0 mm 2 m/S 737 mmHg 71%
    06:00 -3°C° 0 mm 2 m/S 737 mmHg 68%
    07:00 -3°C° 0 mm 2 m/S 737 mmHg 66%
    08:00 -4°C° 0 mm 3 m/S 737 mmHg 63%
    09:00 -2°C° 0 mm 2 m/S 737 mmHg 61%
    10:00 +1°C° 0 mm 2 m/S 737 mmHg 58%
    11:00 +2°C° 0 mm 2 m/S 737 mmHg 56%
    12:00 +3°C° 0 mm 1 m/S 736 mmHg 56%
    13:00 +4°C° 0 mm 1 m/S 736 mmHg 56%
    14:00 +4°C° 0 mm 1 m/S 736 mmHg 56%
    15:00 +2°C° 0 mm 2 m/S 736 mmHg 57%
    16:00 +1°C° 0 mm 2 m/S 735 mmHg 58%
    17:00 -1°C° 0 mm 2 m/S 735 mmHg 59%
    18:00 -1°C° 0 mm 2 m/S 735 mmHg 60%
    19:00 -1°C° 0 mm 2 m/S 735 mmHg 61%
    20:00 -2°C° 0 mm 2 m/S 735 mmHg 62%
    21:00 -2°C° 0 mm 2 m/S 735 mmHg 62%
    22:00 -2°C° 0 mm 2 m/S 735 mmHg 62%
    23:00 -2°C° 0 mm 2 m/S 734 mmHg 62%

    Morgen, 7 Dezember, Samstag

    Zeit Temperatur Niederschläge Wind Luftdruck Luftfeuchtigkeit
    00:00 -2°C° 0 mm 2 m/S 734 mmHg 63%
    01:00 -2°C° 0 mm 2 m/S 734 mmHg 64%
    02:00 -2°C° 0 mm 2 m/S 734 mmHg 65%
    03:00 -2°C° 0 mm 2 m/S 733 mmHg 66%
    04:00 -2°C° 0 mm 2 m/S 733 mmHg 66%
    05:00 -2°C° 0 mm 2 m/S 732 mmHg 67%
    06:00 -2°C° 0 mm 2 m/S 732 mmHg 69%
    07:00 -2°C° 0 mm 2 m/S 732 mmHg 70%
    08:00 -2°C° 0 mm 2 m/S 732 mmHg 72%
    09:00 -1°C° 0 mm 3 m/S 732 mmHg 71%
    10:00 0°C° 0 mm 3 m/S 732 mmHg 70%
    11:00 +1°C° 0 mm 3 m/S 732 mmHg 69%
    12:00 +1°C° 0 mm 3 m/S 731 mmHg 70%
    13:00 +2°C° 0 mm 3 m/S 731 mmHg 71%
    14:00 +2°C° 0 mm 3 m/S 731 mmHg 72%
    15:00 +2°C° 0 mm 3 m/S 731 mmHg 74%
    16:00 0°C° 0 mm 4 m/S 731 mmHg 77%
    17:00 0°C° 0 mm 4 m/S 731 mmHg 79%
    18:00 0°C° 0 mm 4 m/S 731 mmHg 80%
    19:00 0°C° 0 mm 4 m/S 731 mmHg 81%
    20:00 0°C° 0 mm 4 m/S 732 mmHg 81%
    21:00 0°C° 0 mm 5 m/S 732 mmHg 80%
    22:00 0°C° 0 mm 5 m/S 732 mmHg 79%
    23:00 +1°C° 0 mm 5 m/S 732 mmHg 78%

    übermorgen, 8 Dezember, Sonntag

    Zeit Temperatur Niederschläge Wind Luftdruck Luftfeuchtigkeit
    00:00 +1°C° 0 mm 5 m/S 732 mmHg 79%
    01:00 +1°C° 0 mm 6 m/S 732 mmHg 80%
    02:00 +1°C° 0 mm 6 m/S 732 mmHg 81%
    03:00 +1°C° 0 mm 6 m/S 732 mmHg 82%
    04:00 +1°C° 0 mm 6 m/S 731 mmHg 83%
    05:00 +1°C° 0 mm 5 m/S 731 mmHg 84%
    06:00 +1°C° 0 mm 5 m/S 732 mmHg 85%
    07:00 +1°C° 0 mm 5 m/S 732 mmHg 86%
    08:00 +1°C° 0 mm 5 m/S 732 mmHg 87%
    09:00 +1°C° 0 mm 5 m/S 733 mmHg 86%
    10:00 +1°C° 0 mm 5 m/S 733 mmHg 85%
    11:00 +1°C° 0 mm 5 m/S 733 mmHg 84%
    12:00 +1°C° 0 mm 5 m/S 733 mmHg 83%
    13:00 +3°C° 0 mm 4 m/S 733 mmHg 83%
    14:00 +3°C° 0 mm 4 m/S 733 mmHg 83%
    15:00 +2°C° 0 mm 3 m/S 732 mmHg 84%
    16:00 +2°C° 0 mm 3 m/S 732 mmHg 85%
    17:00 +1°C° 0 mm 3 m/S 732 mmHg 87%
    18:00 +1°C° 0 mm 3 m/S 732 mmHg 86%
    19:00 +1°C° 0 mm 3 m/S 732 mmHg 85%
    20:00 0°C° 0 mm 3 m/S 732 mmHg 84%
    21:00 0°C° 0 mm 3 m/S 732 mmHg 84%
    22:00 0°C° 0 mm 3 m/S 731 mmHg 83%
    23:00 -1°C° 0 mm 4 m/S 731 mmHg 83%

    9 Dezember, Montag

    Zeit Temperatur Niederschläge Wind Luftdruck Luftfeuchtigkeit
    00:00 0°C° 0 mm 4 m/S 731 mmHg 82%
    01:00 0°C° 0 mm 4 m/S 730 mmHg 82%
    02:00 0°C° 0 mm 4 m/S 730 mmHg 81%
    03:00 0°C° 0 mm 4 m/S 729 mmHg 81%
    04:00 0°C° 0 mm 4 m/S 729 mmHg 81%
    05:00 0°C° 0 mm 4 m/S 728 mmHg 81%
    06:00 +1°C° 0 mm 4 m/S 728 mmHg 80%
    07:00 +1°C° 0 mm 4 m/S 728 mmHg 80%
    08:00 +1°C° 0 mm 4 m/S 728 mmHg 80%
    09:00 +3°C° 0 mm 4 m/S 728 mmHg 78%
    10:00 +4°C° 0 mm 4 m/S 727 mmHg 76%
    11:00 +3°C° 0 mm 5 m/S 727 mmHg 74%
    12:00 +5°C° 0 mm 4 m/S 727 mmHg 73%
    13:00 +5°C° 0 mm 4 m/S 727 mmHg 72%
    14:00 +6°C° 0 mm 4 m/S 726 mmHg 72%
    15:00 +5°C° 0 mm 4 m/S 726 mmHg 75%
    16:00 +5°C° 0 mm 3 m/S 726 mmHg 78%
    17:00 +4°C° 0 mm 3 m/S 726 mmHg 81%
    18:00 +5°C° 0.1 mm 2 m/S 726 mmHg 82%
    19:00 +5°C° 0.1 mm 2 m/S 726 mmHg 83%
    20:00 +5°C° 0.1 mm 2 m/S 726 mmHg 84%
    21:00 +5°C° 0 mm 2 m/S 726 mmHg 85%
    22:00 +4°C° 0 mm 2 m/S 726 mmHg 85%
    23:00 +4°C° 0 mm 2 m/S 725 mmHg 85%

    10 Dezember, Dienstag

    Zeit Temperatur Niederschläge Wind Luftdruck Luftfeuchtigkeit
    00:00 +4°C° 0 mm 2 m/S 725 mmHg 85%
    01:00 +3°C° 0 mm 3 m/S 725 mmHg 86%
    02:00 +3°C° 0 mm 3 m/S 725 mmHg 86%
    03:00 +3°C° 0.1 mm 3 m/S 724 mmHg 86%
    04:00 +5°C° 0.1 mm 2 m/S 724 mmHg 86%
    05:00 +5°C° 0.1 mm 2 m/S 724 mmHg 86%
    06:00 +4°C° 0.1 mm 2 m/S 724 mmHg 87%
    07:00 +4°C° 0.1 mm 2 m/S 725 mmHg 88%
    08:00 +4°C° 0.1 mm 2 m/S 725 mmHg 88%
    09:00 +3°C° 0 mm 3 m/S 725 mmHg 88%
    10:00 +4°C° 0 mm 3 m/S 726 mmHg 88%
    11:00 +5°C° 0 mm 3 m/S 726 mmHg 87%
    12:00 +5°C° 0 mm 3 m/S 727 mmHg 82%
    13:00 +5°C° 0 mm 4 m/S 727 mmHg 78%
    14:00 +5°C° 0 mm 4 m/S 727 mmHg 73%
    15:00 +4°C° 0 mm 3 m/S 728 mmHg 76%
    16:00 +4°C° 0 mm 3 m/S 728 mmHg 79%
    17:00 +3°C° 0 mm 3 m/S 729 mmHg 82%
    18:00 +2°C° 0 mm 3 m/S 729 mmHg 83%
    19:00 +2°C° 0 mm 3 m/S 730 mmHg 85%
    20:00 +1°C° 0 mm 4 m/S 731 mmHg 86%
    21:00 0°C° 0 mm 4 m/S 731 mmHg 87%
    22:00 0°C° 0 mm 4 m/S 732 mmHg 89%
    23:00 0°C° 0 mm 4 m/S 732 mmHg 90%

    11 Dezember, Mittwoch

    Zeit Temperatur Niederschläge Wind Luftdruck Luftfeuchtigkeit
    00:00 0°C° 0 mm 4 m/S 733 mmHg 90%
    01:00 0°C° 0 mm 4 m/S 733 mmHg 89%
    02:00 0°C° 0 mm 4 m/S 733 mmHg 89%
    03:00 0°C° 0 mm 4 m/S 734 mmHg 89%
    04:00 -1°C° 0 mm 4 m/S 734 mmHg 89%
    05:00 -1°C° 0 mm 4 m/S 734 mmHg 89%
    06:00 -1°C° 0 mm 4 m/S 735 mmHg 90%
    07:00 -1°C° 0 mm 4 m/S 735 mmHg 90%
    08:00 -1°C° 0 mm 4 m/S 735 mmHg 91%
    09:00 -1°C° 0 mm 4 m/S 736 mmHg 88%
    10:00 -1°C° 0 mm 4 m/S 736 mmHg 86%
    11:00 0°C° 0 mm 4 m/S 736 mmHg 83%
    12:00 +1°C° 0 mm 3 m/S 736 mmHg 80%
    13:00 +2°C° 0 mm 2 m/S 736 mmHg 78%
    14:00 +2°C° 0 mm 2 m/S 735 mmHg 75%
    15:00 +3°C° 0 mm 1 m/S 735 mmHg 78%
    16:00 +2°C° 0 mm 1 m/S 735 mmHg 80%
    17:00 +1°C° 0 mm 1 m/S 735 mmHg 82%
    18:00 +1°C° 0 mm 1 m/S 735 mmHg 84%
    19:00 -1°C° 0 mm 2 m/S 735 mmHg 86%
    20:00 -1°C° 0 mm 2 m/S 735 mmHg 87%
    21:00 -1°C° 0 mm 3 m/S 735 mmHg 87%
    22:00 -1°C° 0 mm 3 m/S 735 mmHg 88%
    23:00 -2°C° 0 mm 3 m/S 735 mmHg 88%
    Mehr zeigen